{"data":{"norad_id":52451,"intl_designator":"2022-049A","name":"STARLINK-3870","alt_names":[],"object_type":"PAYLOAD","status":"ACTIVE","operator":null,"country":"US","launch_date":"2022-05-06","launch_site_code":"AFETR","launch_vehicle":null,"mission":null,"orbit_class":"UNKNOWN","rcs_meters":null,"size_class":null,"mass_kg":null,"dimensions":null,"purposes":["comms"],"wikipedia_slug":null,"has_3d_model":false,"image_url":null,"decayed_at":null,"tle_current":{"epoch":"2026-05-26T00:37:46.900992Z","epoch_age_seconds":10209431,"freshness":"OLD","line1":"1 52451U 22049A   26146.02623728  .09852349  12440-4  20819-3 0  9991","line2":"2 52451  53.2006  51.9162 0010518 244.9051 115.0909 16.45990611224206","mean_motion":16.45990611,"eccentricity":0.0010518,"inclination_deg":53.2006,"raan_deg":51.9162,"arg_perigee_deg":244.9051,"mean_anomaly_deg":115.0909,"bstar":0.00020819,"rev_number":22420,"period_min":87.485310692334,"perigee_km":143.04880100766,"apogee_km":156.7812112077,"semimajor_km":6528.0520061077,"source":"CELESTRAK","updated_at":"2026-05-26T09:01:08.849391Z"}}}